Showing default

ENSO, 58470

Orbit data source: Space-Track

ENSO, 58470 is a payload satellite owned by Montpellier (FR) in SSO that was launched on Fri, 01 Dec 2023 UTC via an FALCON 9 launch vehicle from the Air Force Western Test Range (AFWTR). Payload-class satellites include a variety of spacecraft equipped with specific instruments for various scientific and technological missions. These include communications satellites like Starlink; space stations such as the ISS; scientific satellites like the Hubble; Earth observation satellites from companies like Planet Labs, Umbra, and HawkEye 360; GPS; miniature CubeSats for education and research; and military/defense satellites.

Loading next visibility...
Identifier
58470, 2023-185J
Orbit
SSO
Last TLE update
5 hours ago
Origin
Manufacturer
Montpellier
Mission
Operational Amateur Technology
Bus & Motor
CUBESAT 1U, Unknown motor
Mass
1 kg wet, 1 kg dry
Launch date (UTC)
2023-12-01 (2 years ago)
Launch vehicle
FALCON 9
Launch site
Air Force Western Test Range (AFWTR)
Object type
Payload
Rocket body
Debris
Shape & HBR
Box + 2 Ant, 6 m
Radar Cross Section
0.232 m², Small (<0.1 m²)

Expand to show TLE details & history

TLE from 5 hours ago
0 ENSO
1 58470U 23185J   25192.18516955  .00038314  00000-0  49454-3 0  9990
2 58470  97.3723 268.3861 0004656 320.9016  39.1903 15.58879429 89957
Epoch: 2025-07-11T04:26Z
TLE epoch observation values (Epoch: 2025-07-11T04:26:38.649Z)
Latitude
-0.00002°
Longitude
-87.61566°
Altitude
391.6 km
Speed
7.677 km/s
True Right ascension
17h 53m 32s
True Declination
0° 00' 00"
Sunlit
Object was in full shadow at epoch
Visualization orbit readout
Latitude
69.28215°
Longitude
-107.29082°
Altitude
403.957 km
Speed
7.674 km/s
Apparent Right ascension
11h 33m 13s
Apparent Declination
24° 35' 37"
Sunlit
Object is in daylight
Visualization observer readout
Local Sidereal Time
21:39:42
Azimuth
332.566° NNW
Elevation
-20.277°
Doppler factor
1
Orbital elements
Apogee altitude
390.962 km
Perigee altitude
384.662 km
Semi-major axis
6,765.949 km
Eccentricity
0.00047
Inclination
97.3723°
RAAN
268.3861°
Arg. of periapsis
320.9016°
True anomaly
Unknown
Mean anomaly
39.1903°
Eccentric anomaly
Unknown
Mean motion
3.89987 °/min
Orbital period
92.31 mins
BSTAR
0.00049454
Loading maneuver chart data...
Loading SW <> Apogee altitude chart data...
Loading historical data...
Loading historical data...
Loading historical data...
Loading historical data...
Loading historical data...
Loading historical data...
Loading historical data...

ENSO Visibility forecast

Observer location: undefined°, undefined°

Span
Click to sort rows by Start time (UTC) header in descending order
Start Az.
Max El. time (UTC)
Max El. Az.
Max El.
End time (UTC)
End Az.
4 mins2025-07-11 17:20:00.741Z45.839° ENE2025-07-11 17:22:00.741Z88.428° E19.448°2025-07-11 17:24:00.741Z138.932° SSE
4 mins2025-07-12 05:14:00.741Z173.582° S2025-07-12 05:16:00.741Z300.902° NW43.811°2025-07-12 05:18:00.741Z343.819° N
|